COSMOS 1275 DEB, 13481

Orbit data source: Space-Track

COSMOS 1275 DEB, 13481 is space debris in LEO originally from a launch on Thu, 04 Jun 1981 UTC launched from the Plesetsk Missile And Space Complex (PKMTR). Debris objects in space refer to the collection of defunct objects orbiting the Earth. Examples of debris include non-operational satellites, rocket bodies, and fragments generated from explosions, collisions, or faulty payload assembly.

Loading next visibility...
Identifier
13481, 1981-053GB
Orbit
LEO
Country
Flag of CISCIS
Related business
Manufacturer
Unknown
Mission
Spacecraft
Bus & Motor
Unknown
Mass
Unknown
Launch date (UTC)
1981-06-04 (44 years ago)
Launch vehicle
Unknown
Launch site
Plesetsk Missile And Space Complex (PKMTR)
Object type
Payload
Rocket body
Debris
Shape & HBR
Unknown shape, 0.1 m
Radar Cross Section
Small (<0.1 m²)

Expand to show TLE details & history
Last TLE update: 17 hours ago

TLE from 17 hours ago
0 COSMOS 1275 DEB
1 13481U 81053GB  25286.30870621  .00083691  00000-0  87591-2 0  9993
2 13481  82.9752 227.7934 0023952 106.4068 253.9787 14.88980698230492
Epoch: 2025-10-13T07:24Z
TLE epoch observation values (Epoch: 2025-10-13T07:24:32.216Z)
Latitude
-0.00001°
Longitude
94.54582°
Altitude
608.829 km
Speed
7.552 km/s
True Right ascension
15h 11m 10s
True Declination
0° 00' 00"
Sunlit
Object was in daylight at epoch
Visualization orbit readout
Latitude
Unknown
Longitude
Unknown
Altitude
Unknown
Speed
Unknown
Apparent Right ascension
Unknown
Apparent Declination
Unknown
Sunlit
N/A
Visualization observer readout
Local Sidereal Time
18:35:13
Azimuth
Unknown
Elevation
Unknown
Doppler factor
Unknown
Orbital elements
Apogee altitude
614.82 km
Perigee altitude
581.401 km
Semi-major axis
6,976.248 km
Eccentricity
0.0024
Inclination
82.9752°
RAAN
227.7934°
Arg. of periapsis
106.4068°
True anomaly
253.71511°
Mean anomaly
253.9787°
Eccentric anomaly
253.84688°
Mean motion
3.72486 °/min
Orbital period
96.65 mins
BSTAR
0.0087591
Loading maneuver chart data...
Computing Atmospheric mass density...

Documentation

Showing up to 5 results
|